[[{"header":{"parameterUnit":"m.s-1","parameterCategory":1,"la1":30.2991,"la2":30.254,"lo1":-89.0895,"lo2":-89.0444,"dy":0.0017,"dx":0.0017,"nx":28,"ny":28,"refTime":"2025-03-21T03:00:00:Z","depth":0,"parameterNumber":2,"parameterNumberName":"U-component_of_WINDS"},"data":[0,0,0,0,0,0,0,0,0,0,0,0,0,0,0,0,0,0,0,0,0,0,0,0,0,0,0,0,0,0,0,0,0,0,0,0,0,0,0,0,0,0,0,0,0,0,0,0,0,0,0,0,0,0,0,0,0,0,0.1421,0.1423,0,0.1597,0.1599,0.1601,0.1686,0.1686,0.1686,0.1686,0.1867,0.1871,0.1876,0,0,0,0,0,0,0,0,0,0,0,0,0,0.1158,0.1163,0.1421,0.1423,0.1425,0.1596,0.1599,0.1601,0.1686,0.1686,0.1686,0.1686,0.1865,0.1871,0.1876,0,0,0,0,0,0,0,0,0,0,0,0,0,0.1297,0.1164,0.142,0.1488,0.1496,0.1596,0.1599,0.1602,0.1686,0.1686,0.1686,0.1686,0.1863,0.187,0.1877,0.1923,0,0,0.1899,0.1902,0,0,0,0,0,0,0,0,0.1289,0.1307,0.1476,0.1484,0.1493,0.162,0.1572,0.1709,0.1686,0.1614,0.1686,0.1686,0.1784,0.1798,0.1831,0.1931,0.1939,0.19,0.1904,0.1907,0.191,0,0,0,0,0,0,0,0.1279,0.1299,0.149,0.1479,0.1489,0.151,0.1529,0.1599,0.1697,0.162,0.1627,0.1647,0.1789,0.1824,0.1836,0.1941,0.19,0.1906,0.1911,0.1913,0.2087,0.2087,0,0,0,0,0,0,0.1259,0.1291,0.1485,0.1496,0.1389,0.1515,0.1537,0.1579,0.1697,0.1715,0.1647,0.165,0.1812,0.1827,0.1843,0.1904,0.1907,0.1914,0.1918,0.2087,0.2087,0.2087,0,0,0,0,0,0,0.1253,0.1275,0.1478,0.1395,0.1423,0.1519,0.1566,0.1582,0.1618,0.1717,0.1735,0.1664,0.1812,0.1833,0.1902,0.1911,0.1917,0.1924,0.2086,0.2087,0.2087,0.2025,0,0,0,0,0,0,0.1245,0.1273,0.1291,0.1395,0.1427,0.1534,0.1567,0.1586,0.163,0.1636,0.1738,0.1755,0.1814,0.1891,0.1909,0.1921,0.193,0.2086,0.2087,0.2087,0.2027,0.2024,0.2021,0,0,0,0,0,0.1235,0.1267,0.1292,0.1314,0.1452,0.1534,0.1553,0.162,0.163,0.1649,0.1713,0.1752,0.1907,0.1897,0.1919,0.1933,0.2086,0.2086,0.2087,0.2029,0.2024,0.2021,0,0,0,0,0,0,0.1162,0.1282,0.1311,0.1377,0.1445,0.1549,0.1575,0.1613,0.168,0.1683,0.1763,0.1785,0.1847,0.1897,0.1884,0.1983,0.2,0.2005,0.1948,0.1945,0.1942,0.1929,0.1936,0,0,0,0,0,0.1153,0.121,0.1312,0.1361,0.1393,0.1478,0.1516,0.1562,0.1636,0.1665,0.1734,0.1804,0.1868,0.1909,0.1974,0.2034,0.2058,0.2055,0.2051,0.2048,0.2052,0.2087,0.2087,0.2089,0.2089,0.2089,0,0,0.1136,0.1209,0.124,0.1348,0.1406,0.1463,0.1502,0.1561,0.1604,0.1674,0.1744,0.1796,0.188,0.1945,0.1977,0.1988,0.2056,0.2049,0.2046,0.2051,0.2087,0.2087,0.2087,0.209,0.209,0.209,0,0,0.1134,0.1195,0.1242,0.1299,0.1387,0.1443,0.1453,0.1552,0.1589,0.1661,0.1714,0.1767,0.1876,0.1934,0.1977,0.1995,0.2034,0.2014,0.1998,0.2031,0.2031,0.2031,0.2038,0.2039,0.2017,0.2017,0.2017,0,0.1102,0.1191,0.1261,0.1318,0.1363,0.1429,0.1477,0.1529,0.1632,0.1662,0.1673,0.1812,0.1873,0.1952,0.1956,0.1989,0.2004,0.2003,0.2025,0.2026,0.2027,0.2035,0.2037,0.2014,0.2015,0.2015,0.2015,0,0.1147,0.1208,0.1235,0.1333,0.1382,0.1434,0.1511,0.1552,0.1593,0.1647,0.1719,0.1794,0.1875,0.1897,0.1938,0.1981,0.1986,0.201,0.2029,0.2023,0.2031,0.2035,0.201,0.2011,0.2012,0.2013,0,0,0.1105,0.1241,0.125,0.1295,0.1396,0.1444,0.1498,0.1577,0.161,0.1679,0.1727,0.1817,0.184,0.1889,0.1937,0.1966,0.1975,0.1987,0.199,0.1982,0.2028,0.2009,0.2011,0.2001,0.2002,0.2002,0.2021,0,0.1118,0.1218,0.1283,0.1358,0.1414,0.1477,0.1524,0.159,0.1642,0.1698,0.1755,0.1818,0.1844,0.1873,0.1905,0.1967,0.1986,0.1967,0.2046,0.2048,0.2023,0.2016,0.1997,0.2011,0.2025,0.2025,0.2026,0,0.1147,0.1214,0.1294,0.1387,0.1414,0.1455,0.1532,0.1584,0.1661,0.1696,0.175,0.1798,0.1858,0.1871,0.1954,0.194,0.1976,0.2011,0.2013,0.2024,0.2037,0.2026,0.2017,0.2019,0.2031,0.2031,0.2031,0,0.1108,0.1218,0.128,0.1317,0.1428,0.1455,0.1503,0.1579,0.1622,0.169,0.1718,0.1791,0.1832,0.1887,0.1954,0.1957,0.203,0.2049,0.2061,0.2059,0.2074,0.2073,0.2071,0.2096,0.2096,0.2096,0.2096,0,0.1116,0.1162,0.1264,0.1303,0.1357,0.143,0.1481,0.1533,0.16,0.165,0.1708,0.1753,0.1838,0.1893,0.1945,0.2006,0.2024,0.2054,0.2068,0.205,0.2046,0.2075,0.2076,0.2097,0.2097,0.2097,0.2097,0,0.1082,0.1152,0.1224,0.1323,0.1349,0.1384,0.1469,0.1508,0.1562,0.1624,0.1643,0.1729,0.1797,0.1868,0.1961,0.1996,0.2054,0.2073,0.2028,0.2036,0.2045,0.2043,0.2062,0.2068,0.2088,0.2088,0.2088,0,0.1082,0.112,0.1222,0.1259,0.1305,0.1364,0.1409,0.1482,0.1525,0.1614,0.1643,0.1715,0.1777,0.1882,0.1953,0.2024,0.2045,0.2047,0.2056,0.2036,0.2045,0.2042,0.2046,0.2044,0.2043,0.2042,0.2042,0,0.1076,0.1109,0.117,0.1243,0.1294,0.1356,0.1419,0.1446,0.1532,0.1577,0.1647,0.1695,0.1789,0.186,0.1939,0.1988,0.2029,0.2038,0.2045,0.2027,0.2,0.2015,0.202,0.2038,0.2038,0.2039,0.2039,0.2039,0.106,0.1096,0.1173,0.124,0.1295,0.1353,0.1394,0.1454,0.1513,0.1596,0.1635,0.1705,0.178,0.189,0.1938,0.1993,0.2006,0.2015,0.2018,0.2019,0.2014,0.199,0.2008,0.2008,0.2009,0.2009,0.2009,0,0.1056,0.1109,0.1169,0.1256,0.1308,0.1342,0.1413,0.1454,0.1515,0.1582,0.1641,0.1721,0.179,0.1865,0.1939,0.1969,0.1989,0.1985,0.1984,0.1995,0.2,0.1986,0.1967,0.1967,0.1967,0.1967,0.1967,0.1967,0.1061,0.1123,0.1165,0.1255,0.1307,0.1376,0.1414,0.1468,0.1521,0.1608,0.1665,0.1714,0.1784,0.1862,0.1927,0.1947,0.1972,0.1962,0.1988,0.1991,0.1995,0.1998,0.1986,0.1967,0.1967,0.1979,0.1979,0.1979]},{"header":{"parameterUnit":"m.s-1","parameterCategory":1,"la1":30.2991,"la2":30.254,"lo1":-89.0895,"lo2":-89.0444,"dy":0.0017,"dx":0.0017,"nx":28,"ny":28,"refTime":"2025-03-21T03:00:00:Z","depth":0,"parameterNumber":3,"parameterNumberName":"V-component_of_WINDS"},"data":[0,0,0,0,0,0,0,0,0,0,0,0,0,0,0,0,0,0,0,0,0,0,0,0,0,0,0,0,0,0,0,0,0,0,0,0,0,0,0,0,0,0,0,0,0,0,0,0,0,0,0,0,0,0,0,0,0,0,4.3311,4.331,0,4.327,4.3269,4.3269,4.3194,4.3193,4.3191,4.319,4.3149,4.3149,4.3149,0,0,0,0,0,0,0,0,0,0,0,0,0,4.3327,4.3327,4.3311,4.331,4.331,4.327,4.3269,4.3269,4.3194,4.3192,4.3191,4.3189,4.3149,4.3149,4.3149,0,0,0,0,0,0,0,0,0,0,0,0,0,4.3306,4.3327,4.3311,4.3268,4.3264,4.327,4.3269,4.3268,4.3195,4.3192,4.319,4.3188,4.3149,4.3149,4.3149,4.3195,0,0,4.315,4.3151,0,0,0,0,0,0,0,0,4.3307,4.3306,4.3275,4.3271,4.3266,4.3235,4.3259,4.3244,4.3195,4.3221,4.319,4.3187,4.3179,4.3177,4.3174,4.3193,4.3191,4.315,4.3151,4.3151,4.3151,0,0,0,0,0,0,0,4.3309,4.3307,4.3295,4.3274,4.3269,4.3251,4.3246,4.3256,4.3213,4.3218,4.3213,4.3209,4.3176,4.3174,4.3172,4.319,4.315,4.3151,4.3151,4.3151,4.3243,4.3245,0,0,0,0,0,0,4.3316,4.3309,4.3296,4.3293,4.3282,4.3253,4.3247,4.3247,4.3212,4.3205,4.3211,4.3206,4.3174,4.3172,4.3171,4.322,4.3151,4.3151,4.3151,4.3241,4.3244,4.3246,0,0,0,0,0,0,4.3317,4.3316,4.3298,4.3299,4.3296,4.3254,4.3256,4.3247,4.3244,4.3206,4.3198,4.3216,4.3172,4.317,4.3189,4.3218,4.3151,4.3152,4.3238,4.3242,4.3245,4.3321,0,0,0,0,0,0,4.3318,4.3317,4.3333,4.33,4.3296,4.3316,4.3257,4.3248,4.3245,4.3238,4.3209,4.3202,4.3171,4.3189,4.3189,4.3217,4.3152,4.3235,4.324,4.3244,4.3316,4.3326,4.3336,0,0,0,0,0,4.3319,4.3357,4.3334,4.3333,4.3316,4.3318,4.3316,4.3278,4.3248,4.3264,4.324,4.3203,4.3215,4.3191,4.3191,4.322,4.3233,4.3239,4.3243,4.3311,4.3324,4.3335,0,0,0,0,0,0,4.3395,4.3352,4.3326,4.3355,4.3341,4.3306,4.3325,4.3293,4.3287,4.3281,4.3235,4.3229,4.3253,4.3239,4.3213,4.3261,4.3218,4.3224,4.327,4.3282,4.3292,4.3295,4.3152,0,0,0,0,0,4.3415,4.342,4.3382,4.3411,4.3405,4.3367,4.3366,4.3338,4.3322,4.3316,4.3292,4.3278,4.3278,4.328,4.3278,4.3313,4.3306,4.3333,4.3343,4.3352,4.3356,4.3373,4.3384,4.3262,4.3262,4.3262,0,0,4.3456,4.3433,4.3439,4.3426,4.3411,4.3418,4.3362,4.3372,4.3376,4.3317,4.3333,4.3316,4.3297,4.3324,4.3335,4.3312,4.3388,4.3358,4.3365,4.3365,4.3379,4.3391,4.3401,4.3266,4.3265,4.3265,0,0,4.3534,4.3518,4.354,4.3527,4.3505,4.3479,4.3485,4.3454,4.3441,4.3456,4.3411,4.3416,4.3418,4.3406,4.34,4.3474,4.344,4.3475,4.3527,4.3544,4.3554,4.3562,4.3588,4.3597,4.348,4.3481,4.3481,0,4.3588,4.3596,4.3555,4.3567,4.3562,4.3509,4.3531,4.352,4.35,4.3498,4.3473,4.3473,4.3457,4.348,4.3498,4.3496,4.35,4.3478,4.3556,4.3564,4.3571,4.3595,4.3604,4.3485,4.3484,4.3484,4.3484,0,4.3663,4.367,4.369,4.3671,4.3668,4.3686,4.3647,4.365,4.3622,4.3599,4.3615,4.3593,4.3586,4.359,4.3563,4.3609,4.3595,4.3564,4.352,4.3587,4.3609,4.3618,4.3491,4.3489,4.3488,4.3487,0,0,4.3788,4.3746,4.3754,4.3744,4.3717,4.3721,4.3736,4.3728,4.3731,4.3719,4.373,4.3732,4.3703,4.3696,4.3668,4.3683,4.3742,4.365,4.3648,4.3667,4.379,4.3813,4.3824,4.372,4.3722,4.3723,4.3791,0,4.3859,4.3881,4.3845,4.3875,4.388,4.383,4.3843,4.3828,4.3807,4.3808,4.3785,4.3787,4.3748,4.3744,4.3757,4.3732,4.3766,4.3727,4.3729,4.373,4.3734,4.3836,4.386,4.3926,4.38,4.3801,4.3802,0,4.3946,4.3937,4.3968,4.3939,4.394,4.3952,4.3941,4.3943,4.3925,4.3909,4.3902,4.3868,4.388,4.3839,4.3855,4.3829,4.3828,4.3816,4.3817,4.3815,4.3769,4.3835,4.3946,4.3955,4.3815,4.3814,4.3813,0,4.4032,4.4029,4.4046,4.404,4.4007,4.4016,4.4003,4.3982,4.398,4.3971,4.3969,4.3962,4.3958,4.3954,4.3919,4.3892,4.3939,4.3895,4.3925,4.3926,4.3937,4.3936,4.4048,4.3938,4.3938,4.3938,4.3938,0,4.4115,4.4136,4.4085,4.4096,4.4117,4.4075,4.4098,4.4079,4.4062,4.4068,4.4025,4.4032,4.3987,4.3989,4.3962,4.3979,4.3978,4.3964,4.3957,4.3968,4.3969,4.3965,4.3959,4.394,4.394,4.3939,4.3939,0,4.4215,4.4181,4.4197,4.4164,4.4156,4.4174,4.4145,4.4154,4.413,4.4139,4.4139,4.4101,4.4101,4.4067,4.406,4.4042,4.407,4.4055,4.4076,4.407,4.4103,4.41,4.4214,4.4227,4.4111,4.4112,4.4113,0,4.427,4.4284,4.4253,4.4253,4.4242,4.4244,4.4241,4.4201,4.42,4.418,4.4191,4.4188,4.4183,4.4185,4.4158,4.4152,4.4136,4.4176,4.4135,4.4145,4.4135,4.4134,4.4135,4.4185,4.4186,4.4188,4.4189,0,4.437,4.4353,4.435,4.4342,4.4339,4.4331,4.432,4.4323,4.4279,4.428,4.4279,4.4276,4.4268,4.4265,4.4254,4.424,4.4207,4.4202,4.4209,4.4219,4.423,4.4224,4.4099,4.4199,4.4198,4.4198,4.4197,4.4197,4.4448,4.4458,4.4437,4.4436,4.4423,4.4414,4.442,4.4397,4.4396,4.4386,4.4363,4.4366,4.4347,4.4329,4.4318,4.432,4.43,4.4309,4.4312,4.4314,4.432,4.4231,4.4318,4.4318,4.4317,4.4317,4.4317,0,4.4545,4.4529,4.4528,4.4514,4.4513,4.4481,4.4467,4.4468,4.4472,4.4457,4.4453,4.4452,4.4449,4.4421,4.4414,4.4421,4.4405,4.442,4.4419,4.4416,4.4339,4.4334,4.4433,4.4433,4.4433,4.4433,4.4433,4.4433,4.4595,4.4611,4.4591,4.46,4.4584,4.4587,4.4581,4.4572,4.456,4.4561,4.4558,4.454,4.4519,4.4511,4.4506,4.4498,4.4497,4.4518,4.4504,4.4433,4.4422,4.4411,4.4405,4.4518,4.4518,4.4581,4.4581,4.4582]}]]